Terminal Aerodrome Forecast
Issued by NWS Flagstaff, AZ

Home | Current Version | Previous Version | Text Only | Print | Product List | Glossary On
Versions: 1 2 3 4 5 6 7 8 9 10 11 12 13
000
FTUS45 KFGZ 262327
TAFINW
TAF
KINW 262327Z 2700/2724 VRB06KT P6SM SCT250
     FM270200 VRB05KT P6SM SCT120
     FM271800 22009G15KT P6SM BKN120=

USA.gov is the U.S. government's official web portal to all federal, state and local government web resources and services.